Regional Weather Roundup
Issued by NWS Charleston, SC

Current Version | Previous Version | Graphics & Text | Print | Product List | Glossary On
Versions: 1 2 3 4 5 6 7 8 9 10 11 12 13 14 15 16 17 18 19 20 21 22 23 24 25 26 27 28 29 30 31 32 33 34 35 36 37 38 39 40 41 42 43 44 45 46 47 48 49 50
000
ASUS42 KCHS 020510
RWRCHS
REGIONAL WEATHER ROUNDUP
NATIONAL WEATHER SERVICE CHARLESTON SC
100 AM EDT TUE SEP 02 2014

NOTE: "FAIR" INDICATES FEW OR NO CLOUDS BELOW 12,000 FEET WITH NO
SIGNIFICANT WEATHER AND/OR OBSTRUCTIONS TO VISIBILITY.

NOT ALL STATIONS ARE QUALITY CONTROLLED BY THE NATIONAL
WEATHER SERVICE. USE DATA WITH CAUTION...ESPECIALLY
DEWPOINT OBSERVATIONS.

SCZ027-030-031-034>040-042>050-020600-
...SOUTH CAROLINA...

CITY           SKY/WX    TMP DP  RH WIND       PRES   REMARKS
N CHARLESTON   PTCLDY    82  76  81 CALM      30.09S
WATERFRONT PRK   N/A     84 N/A N/A SW5         N/A
FORT JOHNSON   NOT AVBL
MOUNT PLEASANT FAIR      81  79  94 CALM      30.10R
JOHNS ISLAND   PTCLDY    82  79  89 CALM      30.10R HX  93
PINOPOLIS        N/A     82  75  78 MISG      30.03R
MONCKS CORNER    N/A     79  77  94 CALM      30.10S
SUMMERVILLE    FAIR      77  77 100 CALM      30.10S
BEAUFORT MCAS  PTCLDY    81  76  84 W3        30.09S
BEAUFORT ARPT  FAIR      82  79  89 S6        30.08F HX  93
HILTON HEAD IS PTCLDY    82  79  89 S5        30.10S HX  93
GEORGETOWN     NOT AVBL
WALTERBORO     MOCLDY    79 N/A N/A CALM      30.10S
ORANGEBURG     MOCLDY    77  73  87 CALM      30.10F
BARNWELL       FAIR      79  73  83 S3        30.10F
AIKEN          FAIR      75  75 100 S5        30.13S
MANNING        FAIR      81  81 100 CALM      30.09S HX  91
KINGSTREE      NOT AVBL
COLUMBIA       PTCLDY    78  72  81 SE5       30.08S
SUMTER         MOCLDY    78  75  92 SW6       30.07F
FLORENCE       MOCLDY    78  72  81 S6        30.08F
MYRTLE BEACH   CLEAR     81  75  83 SW3       30.10S
N MYRTLE BEACH PTCLDY    81  76  84 W3        30.09S

$$

GAZ063-065-086>088-099>101-113>116-118-119-134-136>141-150-020600-
...GEORGIA...

CITY           SKY/WX    TMP DP  RH WIND       PRES   REMARKS
SAVANNAH ARPT  MOCLDY    81  76  84 S5        30.09F
HUNTER AAF     PTCLDY    81  77  89 S5        30.07F
FORT STEWART   MOCLDY    79  75  88 S5        30.08F
STATESBORO     NOT AVBL
SYLVANIA       CLOUDY    82  79  92 CALM      30.09F HX  91
CLAXTON        NOT AVBL
THOMSON        MOCLDY    74  74 100 CALM      30.13F
AUGUSTA-BUSH   MOCLDY    75  74  96 SW3       30.08F FOG
AUGUSTA-DANIEL MOCLDY    78  73  84 W3        30.10F
SWAINSBORO     FAIR      81  77  89 CALM      30.08F
VIDALIA          N/A     77  75  94 CALM      30.09F
ALMA           CLOUDY    78  72  81 W5        30.12R
WAYCROSS       MOCLDY    81  78  93 W6        30.12R
JESUP            N/A     79  73  83 CALM      30.11S
BRUNSWICK      MOCLDY    82  73  74 CALM      30.11F
SAINT SIMONS   MOCLDY    82  75  79 SW6       30.11S

$$

SCZ027-028-034-036>038-045-046-048>050-GAZ119-141-020600-
...LAKE AND SUPPLEMENTAL COASTAL OBSERVATIONS...

STATION/POSITION TIME  TEMP    WIND        PRES    WAVE   SWELL
                       AIR SEA DIR/SP/G            HT/PER HT/PER/DIR
                 (UTC) (F)     (DEG/KT/KT) (MB)    (FT/S) (FT/S/D)
UPR LAKE MARION  NOT AVBL
WINYAH BAY       0400   81     210/  3     1018.0S
LAKE MURRAY      0400   82     210/  6/  8 1018.3S
ACE BASIN NERRS  0400   82        CALM     1019.0S
FORT PULASKI     0500   83     200/  5/ 10 1019.1F
SAPELO ISLAND    0400   82     190/  3     1020.0S

$$

ANZ835-935-AMZ111-154-330-350-352-354-374-450-454-472-020600-
...C-MAN AND BUOY OBSERVATIONS...

STATION/POSITION TIME  TEMP    WIND        PRES    WAVE   SWELL
                       AIR SEA DIR/SP/G            HT/PER HT/PER/DIR
                 (UTC) (F)     (DEG/KT/KT) (MB)    (FT/S) (FT/S/D)
FOLLY BEACH CMAN 0400   83     200/ 11/ 14 1019.4S
BUOY 41004       0500   83 83  190/ 10/ 12 1018.6F   2/ 8   2/ 8
BUOY 41008       0500   84 85  190/ 12/ 14 1019.0F   2/ 7   2/120/ 7
5E ST. MARYS GA  0500      85                N/A     3/ 8
FRYING PAN BUOY  NOT AVBL
BUOY 41025       0500   82     210/ 17/ 19 1017.7F   4/ 4   2/110/ 8
CAPE LOOKOUT NC  0400   81     210/  9/ 12 1018.5F
BUOY 41002       0449   82 83  190/ 12/ 16 1020.7F   4/10   3/ 60/10
BUOY 41010       0500   83 84  150/  8/ 10 1019.8F   3/ 8   3/ 80/ 8
BUOY 41012       NOT AVBL
ST AUGUSTINE FL  0500   81     190/  6/  7 1020.0F
CAPERS NEARSHORE 0400   83     200/ 12/ 16   N/A
FRIPP NEARSHORE  NOT AVBL


$$


USA.gov is the U.S. government's official web portal to all federal, state and local government web resources and services.